Wind_Speed
42 40 36 30 30 26 23 21 20 21 21 19 16 5 42 52 44 14 4 5 4 3 4 4 3 4 3 2 4 4 4 2 2 3 3 3 2 3 1 3 5 6 5 3 3 2 6 5 4 3 3 4 5 9
46 41 37 31 31 27 24 22 20 21 22 20 15 12 48 48 47 11 6 20 19 6 3 13 19 17 4 2 5 2 2 3 4 4 1 2 1 1 2 2 1 3 4 2 6 4 1 2 3 2 1 2 6 9
46 44 38 33 31 27 26 23 21 21 23 20 14 25 45 52 45 13 11 16 13 4 3 5 4 10 15 9 0 4 2 4 3 2 3 2 2 3 3 4 2 2 1 2 2 0 2 1 2 1 3 3 6 7
49 49 44 37 33 28 28 27 24 22 20 18 13 33 45 47 36 15 8 7 12 4 4 2 7 5 11 8 4 3 10 6 6 3 2 2 2 2 2 1 3 4 1 3 5 4 3 1 2 4 7 5 4 9
49 52 47 41 36 30 30 29 26 24 21 17 16 36 43 40 33 19 16 8 5 3 4 2 1 9 10 15 18 15 14 5 3 2 2 2 1 2 1 1 3 4 5 4 4 1 1 5 4 5 7 8 5 4
49 47 46 43 36 32 32 30 26 26 23 20 38 41 43 41 29 26 3 6 4 7 5 3 1 4 9 15 18 13 7 4 3 3 2 1 2 3 2 2 4 3 1 2 2 2 4 10 10 9 9 7 7 6
48 44 42 40 34 34 34 30 26 26 19 29 43 45 44 42 26 5 3 9 16 5 4 4 2 1 3 4 3 3 6 2 2 2 1 2 0 3 2 3 3 5 1 3 6 4 5 2 5 10 9 11 14 11
46 42 40 39 36 36 32 28 26 22 43 48 46 41 37 31 22 9 10 16 14 12 3 4 2 1 2 1 1 2 2 2 3 1 1 1 0 1 4 6 5 3 2 5 4 5 5 6 7 8 6 7 7 6
41 40 40 40 40 36 30 29 25 58 57 53 47 40 27 11 4 7 13 10 10 6 4 3 7 4 3 2 2 1 2 2 0 1 1 2 2 5 6 6 5 5 2 7 6 6 3 4 7 6 5 8 7 6
42 42 44 44 41 37 29 17 61 62 61 53 38 9 3 5 23 13 4 2 4 3 3 3 3 3 4 3 1 2 1 1 1 3 2 2 3 5 6 7 5 4 4 2 4 4 4 6 6 8 7 9 6 5
44 47 47 45 42 36 30 45 67 63 53 16 3 3 15 19 4 3 2 2 1 1 2 3 3 5 2 3 3 2 3 1 1 3 3 3 3 4 3 6 6 5 2 3 5 5 5 4 6 6 6 6 7 7
46 47 46 44 42 39 35 66 65 28 14 15 24 20 7 4 2 4 3 1 4 6 3 4 4 3 2 3 3 2 3 2 3 3 1 3 4 4 6 6 5 4 1 3 4 5 3 4 6 7 5 5 6 7
43 44 42 37 43 28 63 61 37 39 54 25 7 4 3 0 2 8 8 3 3 4 5 4 4 3 2 2 3 3 4 4 2 2 3 4 3 4 5 4 5 3 1 3 3 1 3 3 5 6 6 6 5 6
40 37 32 35 29 68 57 48 55 35 13 4 4 7 7 5 5 4 3 5 3 6 11 6 4 3 2 3 3 4 3 3 3 4 5 3 6 6 6 5 3 2 1 1 2 2 2 2 3 3 4 4 4 3
33 33 31 20 55 54 56 56 35 12 6 3 4 6 5 2 2 2 2 4 2 10 7 5 4 3 2 4 2 3 5 4 5 5 3 3 5 7 6 6 4 4 2 1 1 1 2 2 2 2 3 4 4 4
25 34 20 25 44 57 51 33 10 5 3 3 3 4 4 4 3 2 4 8 5 8 3 3 4 4 2 5 4 6 7 7 4 3 3 4 6 6 6 6 5 5 6 4 3 2 1 1 2 4 6 4 3 4
21 0 18 47 55 46 31 8 4 4 3 3 2 2 2 3 4 3 5 5 5 3 3 3 5 6 3 3 2 4 5 3 3 2 2 5 7 7 6 5 6 6 5 5 3 4 4 4 6 7 5 3 5 6
7 24 61 64 43 27 8 8 3 3 4 2 2 1 2 2 6 4 3 6 3 2 3 4 4 3 5 7 3 3 2 2 1 2 3 4 5 6 9 6 8 5 5 5 5 6 7 8 8 8 11 11 10 10
25 49 49 44 30 10 3 4 4 3 2 1 1 2 2 3 3 3 7 4 4 3 5 2 4 3 3 3 3 2 3 2 4 3 2 4 8 8 9 9 9 7 6 5 6 6 7 8 10 10 10 10 9 13
50 48 35 27 18 4 4 2 3 3 2 1 2 2 2 2 2 4 4 3 2 2 3 2 3 3 3 2 3 2 3 3 4 3 2 2 6 9 11 12 11 9 7 7 8 8 7 7 7 7 8 9 9 12
30 23 30 21 7 9 3 2 3 2 2 3 0 1 2 2 3 2 2 1 3 2 1 3 2 1 1 0 3 5 4 5 4 3 3 2 5 9 8 9 9 7 5 4 5 5 4 5 5 6 7 8 8 9
11 20 8 9 5 4 3 5 3 2 2 2 2 2 3 2 2 2 2 2 1 3 3 3 2 2 2 3 2 4 7 7 6 6 6 8 3 1 2 10 10 6 9 10 10 7 4 3 4 5 6 8 7 8
17 8 7 5 4 4 2 2 3 2 3 2 1 3 2 2 1 2 1 1 3 2 2 2 3 3 4 4 5 4 3 5 3 3 4 4 3 3 2 6 10 7 5 8 7 5 2 2 3 6 8 9 9 10
12 5 4 3 3 3 2 2 2 3 2 2 2 3 2 1 1 2 2 2 2 1 2 3 3 3 3 3 1 0 1 5 4 3 4 5 2 3 5 5 6 7 7 2 4 4 4 3 7 9 8 8 9 11
5 3 3 5 2 4 4 3 2 2 3 2 3 2 2 1 2 2 3 2 2 2 2 2 2 2 3 0 1 1 1 5 6 3 2 5 4 4 3 2 3 4 4 4 6 5 5 7 8 8 9 10 11 14
5 2 2 3 3 3 4 4 4 4 4 3 2 2 1 2 2 5 3 3 3 3 4 5 4 3 1 2 3 1 3 5 6 5 3 2 5 2 2 3 1 3 2 2 3 6 8 8 10 12 15 15 13 14
4 2 1 1 3 4 3 3 2 2 3 5 4 5 3 4 5 3 0 1 2 3 8 14 14 7 5 7 9 8 7 6 5 9 9 7 5 3 1 1 2 2 2 5 7 9 11 13 14 15 15 16 17 15
3 3 6 3 3 1 4 3 4 5 4 3 6 5 8 7 4 1 1 1 9 14 16 12 9 13 15 13 12 12 10 10 10 9 8 7 5 5 5 4 2 3 7 9 10 10 11 12 13 15 17 19 20 19
3 1 3 4 3 3 2 1 2 1 1 4 3 3 3 0 0 0 3 8 14 17 15 14 12 16 17 15 12 9 10 11 9 3 1 2 2 3 1 4 6 7 8 9 9 9 11 13 15 16 14 16 20 21
2 0 3 2 3 2 1 1 1 1 1 2 1 2 2 2 2 4 9 12 12 9 11 13 19 14 14 13 11 9 7 5 2 2 3 3 2 2 4 6 6 6 8 10 11 11 12 12 14 15 16 19 20 22
2 2 3 3 3 1 0 1 1 2 2 2 2 2 2 1 1 2 4 6 8 14 16 14 10 10 13 12 6 6 1 4 2 2 2 1 2 5 7 8 8 9 10 12 13 14 13 13 15 18 19 20 21 19
2 2 3 3 2 0 1 1 1 2 3 2 2 1 1 2 2 1 5 10 13 12 8 16 16 12 11 9 6 5 4 4 3 1 2 3 5 7 8 9 10 11 11 12 10 9 11 14 18 20 20 21 21 21
2 2 3 4 3 1 1 3 3 2 3 2 3 1 1 0 3 3 8 11 9 14 15 15 13 13 10 8 7 5 5 4 1 2 3 4 6 7 9 11 10 10 8 7 7 11 14 16 17 17 17 17 18 18
Wind_Direction
281 285 285 284 281 278 268 268 279 284 294 309 308 264 191 182 179 201 118 112 113 93 12 10 43 107 74 99 142 176 92 329 68 87 120 215 152 209 161 197 176 169 167 208 188 233 281 333 3 65 307 311 322 339
277 278 277 276 273 272 264 260 268 273 286 297 304 253 176 172 174 170 116 89 96 81 118 99 77 60 50 351 122 40 145 146 166 100 112 111 120 41 137 252 313 226 196 187 185 222 197 332 118 97 316 312 355 345
271 272 271 268 265 263 255 249 257 259 276 288 294 197 183 174 178 191 135 108 85 99 58 48 359 7 39 20 58 119 291 155 111 161 149 137 150 127 164 243 275 277 111 225 351 61 342 61 105 343 319 316 334 331
266 265 263 260 257 253 246 239 246 248 263 272 311 192 179 175 185 195 158 119 87 103 102 21 5 26 12 35 70 102 124 92 103 79 97 124 146 159 216 221 211 209 102 201 265 282 44 97 119 348 326 280 312 318
264 260 257 253 248 242 237 233 241 251 262 252 234 189 172 168 177 188 168 143 96 128 117 101 3 17 43 75 77 94 97 87 77 69 79 154 121 117 2 18 248 190 196 170 233 214 186 255 286 308 310 296 279 272
262 255 246 244 237 230 228 226 232 243 256 252 183 174 159 158 158 151 55 204 163 137 108 103 313 14 57 70 61 47 52 63 80 113 127 153 209 108 124 233 256 211 176 146 256 332 275 277 284 285 289 274 292 277
253 247 234 228 220 218 218 221 227 241 248 183 163 160 159 157 169 103 193 165 159 133 89 98 67 337 355 20 25 28 35 60 85 95 75 140 166 103 139 238 251 166 166 293 297 285 271 270 279 309 295 286 288 278
244 231 219 210 205 208 207 213 227 232 155 147 141 137 147 152 133 75 92 133 121 93 73 106 86 166 184 95 75 356 46 35 19 103 34 156 108 114 247 235 238 253 276 299 237 239 253 286 298 290 305 319 306 275
221 205 198 190 193 193 192 204 180 142 136 133 127 128 124 138 81 137 118 118 73 76 109 108 149 191 158 118 127 63 88 56 301 79 247 115 199 232 222 204 198 192 202 291 296 292 339 310 303 311 324 317 316 311
193 180 178 179 179 178 177 192 133 131 130 125 121 78 110 137 127 126 74 45 31 359 65 102 131 139 149 142 120 108 7 149 137 240 111 204 254 247 219 204 184 189 236 282 285 308 333 327 330 327 321 306 295 312
158 165 167 168 167 168 177 153 132 130 130 127 107 90 122 134 94 38 69 115 181 55 152 141 140 134 232 125 152 173 176 178 224 248 143 259 266 239 181 163 185 199 203 242 264 270 281 287 303 320 345 20 14 13
151 156 157 159 164 165 168 138 136 135 135 139 112 113 111 82 113 156 195 89 197 188 149 127 159 140 158 129 104 173 133 58 244 150 167 259 250 221 173 184 179 125 119 275 287 287 298 314 324 321 342 11 24 11
145 145 152 160 162 178 148 142 143 130 124 118 78 88 136 353 87 176 188 240 149 174 161 151 119 125 100 71 81 115 146 211 148 207 234 226 238 185 184 142 101 103 32 299 291 350 331 329 346 359 359 8 27 46
137 143 143 157 163 148 145 144 138 136 118 88 123 139 200 189 228 185 173 147 157 130 131 117 103 117 135 89 143 104 213 148 220 234 236 241 207 172 151 131 150 145 125 316 315 334 348 358 19 15 9 2 9 26
136 140 145 153 155 145 144 140 146 121 68 103 129 181 189 147 85 114 131 98 98 140 124 106 74 100 115 116 165 116 172 222 223 228 229 219 163 144 153 151 157 166 157 199 332 0 48 51 7 336 328 324 320 317
141 146 143 184 154 145 141 143 109 73 62 74 66 110 106 93 123 60 96 119 140 138 97 72 113 89 185 140 142 198 160 219 240 213 222 142 143 150 163 160 173 178 172 187 238 265 342 21 6 320 320 310 313 322
131 258 196 154 145 139 136 102 73 52 76 62 40 50 120 99 126 142 138 131 136 100 122 124 113 185 106 91 203 189 205 220 211 212 165 154 156 167 169 160 165 176 175 180 210 246 261 266 288 304 306 288 297 287
90 139 143 142 135 122 68 44 73 61 64 50 85 71 44 87 121 123 111 134 114 105 120 179 126 125 162 168 222 231 201 239 161 145 151 140 144 157 166 166 174 180 195 211 231 246 251 261 267 268 281 290 287 283
156 148 141 140 137 98 77 49 51 96 82 63 49 31 57 81 49 79 113 68 81 101 108 53 91 167 205 208 193 220 188 174 162 158 153 167 172 169 172 172 168 187 207 233 247 254 263 273 273 279 278 278 269 279
145 140 141 142 131 77 85 59 47 81 94 95 49 39 56 67 81 94 85 66 79 85 64 116 201 207 185 216 186 165 154 130 128 118 147 186 185 175 181 179 189 204 219 247 258 257 263 281 283 274 279 282 279 283
124 121 127 121 69 63 79 67 58 71 92 76 36 50 71 36 72 73 63 352 61 139 213 211 218 212 82 65 137 141 141 146 171 155 161 175 191 198 194 197 201 203 217 245 247 263 247 260 298 314 311 309 306 297
112 125 90 59 76 65 76 19 95 98 69 89 63 37 79 74 79 66 304 65 200 231 191 180 203 153 102 127 108 109 144 145 132 117 108 125 123 138 200 201 182 210 224 233 231 238 266 317 344 336 327 334 326 313
116 98 60 63 84 61 77 359 76 39 105 123 90 82 49 70 32 298 122 215 250 227 177 153 134 103 123 108 126 126 131 153 146 164 178 190 197 189 175 188 211 210 231 245 226 216 250 304 336 335 327 321 322 322
104 57 57 68 79 97 94 62 87 104 108 90 89 100 99 112 315 56 227 237 234 147 160 165 131 89 65 57 83 258 157 207 172 163 186 174 161 242 235 238 238 253 245 224 209 248 231 274 317 327 329 326 326 320
89 15 81 70 69 106 108 126 106 89 99 111 113 132 171 181 131 186 233 252 208 194 169 123 106 86 137 189 338 179 159 185 164 160 152 187 147 125 99 148 188 207 214 221 221 225 265 303 315 317 323 328 330 325
81 10 68 129 131 135 156 132 156 135 120 116 86 117 156 129 149 236 222 206 201 175 173 167 151 125 120 178 148 187 156 139 149 111 105 177 201 198 174 167 165 196 210 244 283 285 297 308 313 315 315 317 317 314
120 136 91 45 104 111 95 72 82 121 140 160 164 164 148 175 229 244 276 237 154 193 167 177 167 162 154 148 125 120 126 129 128 117 115 104 104 106 126 181 190 167 305 317 321 320 314 313 314 314 314 315 316 318
106 163 136 171 99 49 120 124 160 186 170 163 144 173 171 196 207 209 176 116 134 127 125 131 133 135 136 137 136 129 121 131 124 114 105 100 111 106 97 88 73 331 318 313 311 306 304 302 305 308 308 306 308 313
86 92 105 84 92 68 62 118 150 99 62 163 139 158 198 36 8 155 124 144 146 140 122 118 110 123 119 119 125 125 136 150 133 97 125 276 336 210 290 333 334 327 321 319 317 314 312 307 307 307 306 302 304 305
125 20 103 88 91 102 73 344 79 19 31 62 70 82 60 37 35 107 132 145 155 161 156 152 147 144 145 136 127 110 115 128 125 136 160 211 209 299 334 339 340 337 330 321 318 323 321 317 319 317 317 317 318 319
101 104 83 57 84 58 18 337 333 30 37 47 3 97 131 194 95 131 146 160 163 151 141 139 147 152 147 145 140 130 134 159 135 37 47 64 14 354 354 352 344 338 333 324 322 319 318 325 329 327 325 323 323 318
56 81 126 113 116 191 5 61 53 66 7 53 11 25 25 64 97 286 175 155 149 154 163 162 151 156 145 138 128 119 121 131 149 117 11 352 351 356 349 346 341 335 332 326 326 327 330 330 331 332 330 329 328 328
90 73 74 110 118 291 239 96 35 55 31 41 13 346 318 142 163 217 180 183 192 181 166 155 148 144 140 133 127 125 123 115 61 347 335 327 327 331 327 332 337 339 337 334 327 328 333 334 334 336 337 337 339 342
Height
703 699 700 700 697 696 696 698 697 696 695 693 690 689 691 699 713 721 720 718 720 744 752 749 750 753 758 761 766 775 778 781 784 791 803 805 797 790 790 785 791 793 790 787 791 796 789 765 757 760 772 768 766 762
690 689 689 691 691 689 689 690 692 692 691 690 687 685 688 699 710 717 720 721 720 737 757 753 755 755 758 759 765 773 772 776 777 789 806 809 799 819 801 803 780 781 775 776 785 774 767 768 767 768 769 768 766 764
677 677 677 680 682 682 683 683 685 688 686 686 685 686 690 698 710 716 717 717 724 743 756 753 761 759 758 758 760 768 775 772 776 778 792 797 795 802 808 806 787 780 780 778 775 768 767 767 768 767 767 766 765 764
661 661 664 668 672 674 675 676 678 684 686 683 681 684 691 699 710 717 717 719 721 739 751 768 764 764 764 761 760 759 762 768 773 778 791 797 790 795 797 794 794 786 781 782 781 772 769 767 767 768 766 764 763 761
643 643 648 655 661 665 666 668 668 670 672 676 679 683 690 699 711 718 721 723 725 732 754 768 769 770 768 766 764 765 765 770 777 785 791 794 792 794 799 798 796 783 778 781 778 774 774 771 768 767 767 764 760 758
621 625 631 639 648 654 657 661 663 667 670 673 676 682 691 700 713 720 727 726 726 729 742 769 776 775 773 771 771 771 771 775 780 783 787 789 787 794 802 800 776 775 774 773 775 774 775 772 769 766 764 761 759 756
600 607 615 624 636 644 649 652 657 660 663 667 673 682 692 703 713 717 722 720 725 727 740 772 778 776 776 776 777 777 776 780 781 787 789 788 789 795 803 792 771 772 773 773 773 772 770 768 767 764 762 759 756 753
578 588 600 611 624 635 642 646 649 652 657 667 679 686 699 710 717 722 723 723 724 729 741 771 781 779 778 780 782 779 782 783 786 788 789 788 790 790 787 773 771 770 770 771 770 770 769 768 766 762 759 757 754 750
558 572 588 602 615 628 636 639 639 643 656 670 682 695 707 713 719 725 727 726 725 732 749 766 772 785 778 779 782 782 784 795 788 790 788 788 787 785 765 766 766 766 769 769 768 767 767 767 764 760 758 755 752 748
544 563 581 595 610 623 630 638 633 644 656 673 688 700 714 718 721 724 728 731 733 740 747 759 763 769 774 776 781 786 787 790 800 787 786 785 776 760 759 760 761 763 764 765 766 764 764 764 763 760 757 754 750 748
545 563 579 594 609 620 631 635 634 649 662 674 690 704 712 718 721 727 735 737 746 747 746 754 758 764 770 776 780 783 794 789 783 792 792 796 774 761 755 757 758 759 761 763 764 763 763 762 761 759 755 753 753 752
556 570 583 598 611 623 629 630 637 647 659 669 679 702 712 719 729 730 736 742 737 729 744 748 755 758 765 766 774 779 792 792 793 785 785 779 760 755 754 755 755 757 759 761 761 761 761 761 760 759 757 755 755 755
569 580 592 603 613 620 628 635 643 652 658 664 681 701 706 720 723 717 721 737 734 732 735 740 750 756 761 763 773 777 775 789 781 777 774 763 751 750 753 753 756 758 759 759 759 759 759 759 759 759 758 757 755 754
581 592 600 608 613 619 630 637 644 650 652 670 685 701 700 715 705 700 699 704 714 719 724 734 744 752 757 766 767 788 776 772 774 773 764 753 745 747 752 754 756 757 758 759 759 759 759 759 760 760 759 758 757 756
593 599 606 614 620 625 633 642 649 650 658 673 676 677 693 693 695 701 705 706 711 714 721 734 744 749 761 768 769 769 767 765 761 757 750 744 741 746 751 752 755 756 757 758 759 758 758 759 759 759 758 758 756 755
599 608 614 621 628 633 640 647 651 658 669 677 686 687 689 690 697 705 704 704 706 711 721 728 745 759 760 760 763 765 772 770 750 748 741 740 742 746 748 750 752 754 756 757 758 759 758 758 757 757 757 756 756 756
600 608 608 620 631 639 646 651 657 669 676 683 683 683 689 688 693 699 697 702 707 711 726 735 744 746 754 768 763 755 756 744 739 736 738 738 740 744 746 748 751 753 755 756 757 758 757 757 758 757 756 755 755 754
609 611 612 624 633 643 651 659 669 676 683 687 686 688 687 688 691 696 700 703 707 718 723 731 731 744 748 750 749 737 737 738 736 735 736 738 740 742 744 747 750 752 753 754 755 756 756 755 754 754 754 753 751 751
612 621 625 630 635 644 660 672 677 687 692 690 691 690 691 694 696 696 699 705 708 713 721 732 740 745 732 730 733 740 732 732 730 735 737 738 740 741 743 746 749 751 752 753 753 754 753 753 753 753 751 750 749 747
619 627 633 636 640 653 668 678 680 684 690 694 694 697 697 698 700 703 706 710 715 721 726 736 725 722 722 721 724 725 724 726 731 735 737 738 739 740 742 744 746 748 750 750 751 751 750 749 748 748 747 747 746 744
626 632 635 640 651 661 673 681 686 690 693 696 700 699 701 703 705 707 712 713 718 728 727 723 720 719 720 720 721 722 724 726 729 730 732 738 737 738 740 742 744 747 748 749 749 749 749 748 746 747 747 745 743 742
630 635 640 649 661 671 681 685 687 692 696 699 701 701 704 706 709 714 717 715 722 720 719 717 719 719 721 722 723 724 725 727 729 730 732 733 737 739 739 739 742 744 745 746 746 747 747 746 746 745 743 742 741 740
634 638 647 656 666 676 689 688 688 692 695 703 704 706 711 713 718 719 716 716 716 714 714 715 716 718 720 723 724 725 726 727 730 731 732 733 734 735 736 737 739 741 743 743 744 744 745 745 744 743 741 740 739 738
636 647 657 665 672 685 688 691 692 695 699 701 705 712 716 719 721 722 719 715 712 712 713 714 715 719 721 723 726 726 727 728 729 730 731 732 734 734 736 737 738 740 741 741 743 744 743 742 742 741 739 737 735 734
645 663 664 673 677 681 688 692 694 693 698 704 710 718 721 723 720 724 716 706 711 712 712 714 716 718 724 727 726 726 727 727 727 729 731 732 733 734 735 736 737 738 739 739 739 740 742 741 739 738 737 736 733 732
657 670 667 670 678 676 683 685 688 692 697 705 715 724 724 719 719 709 705 704 707 707 709 709 714 720 722 722 725 726 726 726 728 729 731 731 732 733 735 737 737 738 738 738 739 738 738 738 738 737 736 734 732 730
659 672 674 673 675 677 683 685 688 688 693 699 712 718 714 708 708 700 702 702 702 702 703 707 710 713 717 720 722 724 726 728 729 730 732 733 733 734 735 736 736 738 738 739 739 739 738 736 734 734 733 730 729 727
663 667 670 677 677 680 681 684 686 685 688 694 698 702 697 695 692 700 702 702 702 703 706 710 712 714 716 720 723 725 728 729 731 732 733 734 735 735 737 737 737 737 737 737 736 735 734 734 732 730 729 726 724 723
665 666 666 676 678 679 683 680 683 689 690 689 689 693 696 700 704 704 704 703 705 706 709 712 716 717 719 722 725 726 728 729 731 735 736 739 738 738 737 737 736 736 735 734 733 732 732 732 729 728 725 723 721 719
667 668 670 675 673 681 693 696 693 695 694 694 694 699 702 705 706 705 704 705 707 709 711 713 715 718 721 723 726 728 730 730 731 732 736 738 736 737 736 735 735 734 733 733 732 729 728 727 724 723 721 718 716 713
667 669 675 683 690 697 699 698 697 696 697 699 700 701 704 707 706 705 705 705 707 709 712 715 718 720 721 723 724 727 729 731 731 732 733 734 734 735 734 733 733 733 731 731 730 728 726 723 722 719 717 714 711 709
669 673 674 683 695 701 700 699 699 700 701 701 704 706 706 703 704 705 704 705 708 711 712 714 716 719 721 723 725 726 728 729 730 731 732 732 732 732 731 730 729 729 728 728 727 726 724 721 718 716 713 710 708 705
679 681 686 687 694 700 700 699 702 703 706 710 712 715 714 708 702 704 704 705 708 709 711 714 717 719 721 723 725 726 728 729 730 730 731 731 731 730 731 729 728 727 726 725 726 725 722 719 717 715 712 710 706 703